Temp
18 18 18 17 17 17 17 17 17 17 16 16 16 16 16 16 16 16 16 16 16 16 16 16 16 16 15 15 15 15 15 15 15 16 16 16 16 16 16 16 16 16
17 17 17 17 17 17 16 16 16 16 16 16 16 16 16 16 16 16 16 16 16 16 16 16 16 16 16 15 15 15 15 15 16 16 15 15 15 15 16 16 15 16
17 17 17 17 16 16 16 16 16 16 16 16 16 16 16 16 15 15 15 15 15 15 15 15 15 15 15 15 15 15 15 15 15 15 15 15 15 15 15 15 15 15
16 16 16 16 16 16 16 16 15 15 15 15 15 15 15 15 15 15 15 15 15 15 15 15 15 15 15 15 15 15 15 14 14 15 15 15 15 15 15 15 15 15
16 16 16 15 15 16 15 16 16 15 15 15 15 15 15 15 15 15 15 15 14 14 14 14 14 14 14 14 14 14 14 14 14 14 14 14 14 15 15 15 15 15
15 15 15 15 15 15 15 15 15 15 15 15 15 15 14 14 14 14 14 14 14 14 14 14 14 14 14 14 14 14 14 14 14 14 14 14 14 14 15 15 15 15
15 15 15 15 15 15 14 14 14 14 14 14 14 14 14 13 13 13 13 13 13 13 13 13 13 13 13 13 13 13 13 13 13 13 14 14 14 14 14 15 15 15
15 15 15 15 14 14 14 13 13 13 13 13 13 13 13 13 12 12 12 12 12 12 12 13 13 13 13 13 13 13 13 13 13 13 13 14 14 14 14 14 15 15
15 15 15 14 14 13 13 13 12 12 12 12 12 12 12 12 12 12 12 12 12 12 12 12 12 12 12 12 13 13 13 13 13 13 13 13 14 14 14 14 14 14
15 14 14 14 13 12 12 12 11 11 11 11 11 11 11 12 11 11 11 11 11 11 12 12 12 12 12 12 12 12 12 12 12 12 13 13 13 14 14 14 14 14
14 14 13 13 12 11 11 11 11 11 11 11 11 11 11 11 11 11 11 11 11 11 11 12 12 12 12 12 12 12 12 12 12 12 12 12 13 13 13 13 13 13
13 13 13 12 11 11 11 11 11 11 11 11 11 11 11 11 11 11 11 11 11 11 11 11 11 11 11 11 11 12 12 12 12 12 12 12 12 12 12 12 12 12
13 13 12 11 11 11 11 11 11 11 11 11 10 10 11 10 10 10 10 10 10 10 10 11 11 11 11 11 11 11 11 11 12 12 12 12 11 11 11 11 11 12
13 12 11 11 11 10 10 11 11 11 10 10 10 10 10 10 10 10 10 10 10 10 10 10 10 10 11 11 11 11 11 11 11 11 11 11 11 11 11 11 11 11
11 11 10 10 10 10 10 10 10 10 10 10 10 10 10 10 10 10 10 10 10 10 10 10 10 10 10 10 10 11 11 11 11 11 11 11 11 12 12 12 11 11
10 10 10 10 10 9 9 9 9 9 9 9 9 9 9 10 10 10 10 10 10 10 10 10 10 10 10 10 10 10 10 11 11 11 11 11 11 11 12 12 12 12
9 9 9 9 9 9 9 9 9 9 9 9 9 9 9 9 10 10 10 10 10 10 10 10 10 10 10 10 10 10 10 10 10 10 10 10 11 11 11 11 11 12
8 8 8 9 9 9 9 9 9 9 9 9 9 9 9 9 10 10 10 10 10 10 10 10 10 10 10 9 9 9 9 9 10 10 10 10 10 10 10 11 11 11
8 8 8 8 8 8 8 8 8 8 9 9 9 9 9 9 9 10 10 9 10 10 9 9 9 9 9 9 9 9 9 9 9 9 10 9 9 10 10 10 10 9
9 8 8 8 8 8 8 8 8 8 8 8 9 9 9 9 9 9 9 9 9 9 9 8 8 8 8 8 9 9 9 9 9 9 9 9 9 9 9 9 8 8
9 8 8 8 8 8 8 8 8 8 8 8 8 8 8 8 8 8 8 8 8 8 8 8 8 8 8 8 8 8 8 9 9 9 9 8 8 8 8 8 7 7
9 9 8 8 8 8 8 8 8 8 7 7 7 7 8 8 8 8 8 8 8 8 8 8 8 8 8 7 8 8 8 8 8 7 7 7 7 7 7 6 7 7
9 8 8 8 8 8 8 7 7 7 7 7 7 7 7 7 7 7 7 7 7 7 7 7 7 7 7 6 7 7 7 7 7 6 5 5 5 5 5 6 6 7
9 8 8 8 8 8 8 7 7 7 7 7 7 7 7 7 7 7 7 7 6 6 6 6 6 6 6 6 6 6 6 6 6 5 4 4 5 5 5 5 6 6
9 8 8 8 8 8 8 7 7 7 7 7 7 6 6 6 6 6 6 6 6 6 6 6 6 6 5 5 5 5 5 5 5 4 4 4 4 5 5 5 5 6
8 8 8 8 8 8 7 7 7 7 7 7 7 6 6 6 6 6 6 6 6 6 5 5 5 5 5 5 5 5 5 5 4 4 4 4 4 5 5 5 5 6
Height
1543 1542 1541 1541 1540 1539 1538 1536 1535 1533 1532 1530 1529 1528 1527 1526 1525 1524 1523 1522 1521 1520 1519 1518 1517 1516 1516 1515 1514 1513 1513 1512 1511 1511 1511 1510 1510 1509 1509 1508 1507 1505
1543 1543 1542 1541 1540 1539 1538 1537 1535 1533 1532 1530 1529 1528 1527 1526 1525 1524 1523 1521 1521 1519 1518 1517 1516 1515 1514 1514 1513 1512 1512 1511 1511 1511 1510 1510 1509 1509 1508 1507 1506 1505
1544 1543 1543 1541 1540 1539 1538 1536 1535 1533 1532 1530 1529 1527 1526 1525 1524 1523 1522 1521 1520 1519 1518 1517 1516 1515 1514 1513 1512 1512 1511 1511 1510 1510 1509 1509 1508 1508 1507 1506 1506 1505
1545 1544 1543 1542 1540 1538 1537 1535 1534 1532 1530 1529 1528 1527 1526 1525 1524 1523 1522 1521 1519 1519 1518 1517 1516 1515 1514 1513 1512 1512 1511 1510 1510 1509 1509 1508 1507 1507 1506 1506 1505 1504
1545 1544 1542 1541 1539 1538 1536 1534 1532 1531 1529 1528 1526 1526 1525 1524 1523 1522 1521 1520 1519 1518 1517 1516 1515 1514 1514 1513 1512 1512 1511 1510 1509 1508 1508 1507 1506 1506 1505 1504 1504 1503
1544 1543 1541 1540 1538 1536 1535 1533 1531 1530 1528 1527 1526 1525 1524 1523 1522 1521 1520 1520 1518 1518 1517 1516 1515 1514 1513 1512 1512 1511 1510 1509 1508 1507 1507 1506 1505 1504 1504 1503 1502 1501
1543 1541 1540 1538 1537 1535 1533 1532 1530 1529 1527 1527 1525 1524 1524 1522 1522 1521 1520 1519 1518 1517 1516 1515 1515 1514 1513 1512 1511 1510 1509 1508 1508 1507 1506 1505 1504 1503 1503 1502 1501 1500
1542 1540 1539 1537 1536 1534 1533 1531 1530 1528 1527 1526 1525 1524 1524 1522 1522 1521 1520 1519 1518 1517 1516 1515 1514 1513 1512 1511 1510 1509 1508 1507 1507 1506 1505 1504 1503 1502 1502 1501 1500 1499
1541 1540 1538 1537 1535 1533 1532 1530 1529 1528 1527 1526 1526 1525 1524 1522 1522 1521 1520 1519 1518 1517 1516 1515 1514 1513 1512 1511 1509 1508 1507 1506 1506 1505 1504 1503 1502 1501 1500 1500 1499 1498
1541 1539 1537 1535 1534 1532 1531 1530 1529 1528 1527 1526 1526 1525 1524 1523 1522 1521 1520 1519 1518 1517 1516 1514 1513 1512 1511 1510 1509 1508 1506 1505 1504 1503 1503 1502 1501 1500 1499 1498 1497 1497
1540 1538 1536 1534 1533 1532 1531 1530 1528 1528 1527 1526 1525 1524 1523 1522 1521 1520 1519 1518 1517 1516 1515 1514 1513 1512 1510 1509 1508 1507 1506 1504 1503 1502 1501 1501 1500 1499 1498 1497 1496 1495
1539 1537 1536 1534 1533 1531 1530 1529 1528 1527 1526 1526 1525 1524 1523 1522 1521 1520 1519 1517 1516 1515 1514 1513 1512 1511 1510 1509 1507 1506 1505 1504 1503 1501 1500 1500 1499 1498 1497 1495 1495 1494
1538 1537 1535 1534 1533 1531 1530 1529 1528 1527 1526 1526 1525 1524 1523 1522 1521 1520 1518 1517 1516 1515 1514 1513 1512 1511 1509 1508 1507 1505 1504 1503 1502 1500 1499 1498 1498 1497 1496 1495 1494 1493
1538 1537 1535 1534 1533 1532 1531 1530 1528 1527 1527 1526 1525 1524 1523 1522 1521 1520 1518 1517 1516 1515 1513 1512 1511 1510 1509 1507 1506 1504 1503 1502 1501 1499 1498 1497 1496 1496 1495 1494 1493 1492
1538 1537 1535 1534 1533 1532 1531 1530 1529 1528 1527 1526 1525 1524 1523 1522 1521 1520 1518 1517 1516 1514 1513 1512 1510 1509 1507 1506 1505 1503 1502 1501 1499 1498 1497 1495 1494 1494 1493 1493 1492 1491
1538 1537 1536 1535 1533 1532 1531 1530 1529 1528 1527 1526 1525 1524 1523 1522 1521 1519 1518 1517 1515 1514 1513 1511 1510 1508 1507 1505 1504 1502 1501 1500 1498 1497 1495 1494 1493 1492 1491 1490 1490 1489
1539 1537 1536 1535 1534 1533 1532 1531 1530 1529 1528 1527 1525 1524 1523 1522 1521 1519 1517 1516 1514 1513 1512 1510 1509 1507 1506 1505 1503 1501 1500 1498 1497 1496 1494 1492 1491 1490 1489 1488 1487 1486
1540 1538 1537 1536 1535 1534 1532 1531 1530 1529 1528 1527 1525 1524 1523 1522 1521 1519 1517 1516 1514 1513 1511 1510 1508 1507 1505 1504 1502 1500 1499 1497 1496 1494 1493 1491 1489 1488 1487 1486 1485 1484
1540 1539 1538 1537 1535 1534 1533 1532 1531 1529 1528 1527 1526 1524 1523 1522 1520 1519 1517 1515 1514 1512 1511 1510 1508 1506 1505 1503 1501 1500 1498 1496 1494 1493 1491 1490 1488 1487 1486 1485 1483 1482
1541 1540 1538 1537 1536 1535 1534 1533 1531 1530 1529 1527 1526 1525 1523 1522 1520 1518 1517 1515 1514 1512 1511 1509 1508 1506 1504 1502 1501 1499 1497 1495 1493 1492 1490 1488 1487 1486 1485 1484 1482 1481
1541 1540 1539 1538 1537 1536 1535 1533 1532 1531 1529 1528 1526 1525 1523 1522 1520 1519 1517 1515 1514 1512 1511 1509 1508 1506 1504 1502 1500 1498 1496 1495 1493 1491 1489 1487 1486 1485 1484 1483 1482 1481
1542 1541 1539 1538 1537 1537 1535 1534 1533 1531 1530 1528 1526 1525 1524 1522 1521 1519 1517 1516 1514 1513 1511 1509 1507 1506 1504 1501 1499 1497 1495 1494 1492 1490 1488 1487 1485 1484 1483 1483 1482 1481
1542 1541 1540 1539 1538 1537 1536 1534 1533 1532 1530 1529 1527 1526 1524 1523 1521 1520 1518 1516 1515 1513 1511 1510 1508 1506 1504 1501 1499 1497 1495 1493 1491 1490 1488 1486 1485 1484 1483 1482 1482 1481
1542 1541 1540 1539 1538 1537 1536 1535 1533 1532 1531 1529 1528 1526 1525 1524 1522 1521 1519 1517 1516 1514 1512 1510 1508 1506 1504 1502 1499 1497 1495 1493 1491 1489 1488 1486 1485 1484 1483 1482 1481 1481
1541 1541 1540 1539 1538 1537 1536 1535 1534 1533 1532 1530 1529 1527 1526 1525 1523 1522 1520 1518 1516 1515 1513 1511 1509 1507 1505 1503 1500 1497 1495 1493 1491 1489 1488 1486 1485 1484 1483 1482 1481 1480
1541 1541 1540 1539 1538 1537 1536 1535 1534 1533 1532 1531 1530 1528 1527 1526 1524 1522 1521 1519 1517 1516 1514 1512 1510 1508 1506 1504 1501 1498 1496 1493 1491 1489 1488 1487 1485 1484 1483 1482 1480 1479
Wind_Speed
21 21 20 20 19 18 19 19 20 20 20 20 20 20 20 20 20 20 20 19 18 17 17 17 16 16 15 14 14 14 14 14 13 12 12 11 11 11 11 12 11 10
21 20 20 19 19 18 18 18 18 19 19 19 20 19 19 19 19 19 19 19 18 18 17 17 17 16 17 16 16 15 15 14 13 11 10 10 10 10 9 9 10 10
20 20 20 20 20 19 19 19 18 18 18 18 18 19 19 19 19 19 19 18 18 17 17 16 16 16 16 17 17 16 14 13 12 10 10 9 9 9 8 8 8 9
18 18 19 19 20 20 21 21 21 20 20 19 19 19 19 19 19 18 18 18 17 17 17 16 15 15 14 15 15 15 13 12 10 9 9 9 9 9 8 8 8 9
17 18 19 20 21 22 23 23 23 23 22 21 20 19 18 18 17 17 18 18 17 17 17 16 16 15 14 13 13 13 12 12 11 10 10 10 10 10 10 10 10 10
18 19 20 21 22 22 22 22 22 21 21 20 19 18 17 16 16 16 17 17 17 17 16 16 16 16 15 14 13 12 12 12 12 12 12 12 12 11 11 11 11 11
21 22 23 24 23 23 22 21 20 19 18 17 16 15 15 15 15 15 15 16 16 16 16 16 16 16 16 15 14 13 12 12 12 13 13 13 12 12 11 11 11 11
24 24 24 24 23 22 21 20 19 18 16 15 14 14 14 14 15 15 15 15 16 16 16 16 16 17 16 16 16 15 14 13 13 13 13 13 13 12 12 12 12 12
24 24 23 23 22 21 20 19 18 17 16 15 14 14 13 13 14 14 14 15 15 15 15 15 16 16 16 16 16 16 16 15 15 14 14 14 14 14 13 13 13 13
23 23 23 22 21 20 19 18 17 16 15 15 14 14 13 13 13 13 13 14 13 13 13 13 14 15 16 16 16 17 16 16 16 15 15 15 15 15 15 14 14 14
23 22 21 20 19 19 18 18 17 16 16 16 15 14 14 13 13 13 13 12 12 12 12 13 13 14 15 15 16 16 15 15 15 15 15 15 15 15 15 14 14 14
20 19 19 18 18 18 18 18 18 18 17 17 16 15 14 13 13 13 12 12 13 14 14 13 13 13 14 15 14 14 14 15 16 16 16 15 15 15 14 13 13 13
18 17 16 16 17 17 18 18 18 18 18 17 16 15 14 14 13 13 13 13 14 15 14 14 13 13 14 14 13 13 14 15 16 17 17 16 15 16 15 13 12 12
15 15 15 15 16 16 16 16 15 16 16 16 15 14 15 15 15 14 13 13 13 13 13 14 15 15 15 15 15 15 16 17 18 18 18 18 17 16 15 15 13 12
13 13 14 15 15 15 14 14 13 13 14 14 13 14 15 15 16 15 14 14 14 14 15 16 17 18 18 18 18 18 18 19 20 21 20 20 19 18 17 16 15 14
12 14 16 15 14 14 14 13 13 12 12 13 13 14 14 15 17 17 17 17 17 17 17 18 18 18 18 18 18 19 19 19 20 20 21 21 21 21 21 20 19 18
13 15 16 15 14 13 13 13 12 12 12 13 14 15 16 16 17 18 18 18 18 18 18 18 18 18 17 17 18 18 19 19 19 19 20 20 21 21 22 22 21 20
13 14 14 14 14 13 12 12 12 12 13 14 15 16 17 17 17 17 17 18 17 17 17 17 18 19 19 19 19 19 20 20 20 20 20 20 21 21 20 20 20 19
12 12 14 15 14 13 12 12 12 13 14 15 15 16 16 16 16 16 16 16 16 17 17 17 18 20 20 20 20 20 20 20 20 20 20 20 20 20 19 18 17 15
11 12 13 15 15 15 14 14 14 14 15 15 15 16 15 15 16 15 16 16 16 17 17 17 18 19 19 19 19 20 19 19 20 20 20 19 18 18 16 13 11 13
12 11 11 14 15 15 15 15 15 15 15 15 15 15 15 15 15 15 15 15 16 16 16 17 17 18 18 18 19 19 19 19 19 19 19 17 16 15 12 8 9 14
12 10 9 13 15 15 16 16 16 15 15 15 16 16 15 16 15 15 15 15 15 16 16 17 17 17 17 18 19 20 20 19 18 18 17 16 14 13 11 5 7 16
12 9 7 12 16 15 15 15 15 16 16 17 17 17 17 17 16 16 16 16 17 18 18 19 18 18 18 20 20 21 20 19 17 16 16 16 13 12 13 7 4 13
11 8 7 11 15 16 15 14 14 15 17 17 18 18 18 18 18 18 18 18 19 19 20 20 20 20 21 22 22 23 22 20 18 16 15 15 14 13 15 12 4 7
10 8 7 10 14 15 14 13 13 14 16 17 17 18 19 19 18 18 18 19 19 20 20 21 22 22 23 23 24 24 23 20 19 18 16 15 14 12 14 14 10 9
10 7 7 10 12 12 10 10 11 12 13 15 17 18 18 18 18 18 18 19 19 20 21 22 23 24 24 25 25 26 25 21 18 19 18 15 14 13 13 14 14 13
Wind_Direction
7 5 3 1 358 356 353 350 349 349 347 346 346 346 346 345 343 341 340 339 338 336 335 335 335 334 332 330 330 331 333 335 335 338 340 335 334 336 335 331 330 332
2 0 358 355 354 353 351 350 348 345 344 341 340 339 338 338 338 338 337 334 333 332 331 330 329 330 329 329 328 328 329 329 330 334 338 338 336 337 338 338 338 335
358 355 353 351 350 348 346 346 344 341 338 336 333 331 331 331 332 332 332 331 330 328 328 328 327 327 326 327 328 329 331 331 329 331 334 333 332 331 332 335 341 340
354 351 349 348 346 344 342 341 339 337 336 334 333 330 328 327 326 326 326 325 325 326 328 328 328 328 326 325 324 326 331 334 332 330 331 329 326 322 319 319 326 333
352 349 348 346 343 341 339 337 335 335 335 335 334 331 329 328 325 324 322 321 323 324 325 327 328 329 330 328 325 323 324 326 327 327 327 327 325 320 314 310 312 318
349 348 347 344 341 340 338 337 336 336 336 337 336 334 333 331 329 327 324 323 324 323 323 324 325 327 329 330 329 324 320 319 320 322 324 326 327 324 318 311 308 310
347 346 343 341 340 339 339 341 343 345 347 345 342 340 337 336 335 334 332 329 327 325 324 323 323 325 327 328 328 325 321 319 316 319 322 323 325 324 320 315 310 308
344 341 340 338 338 339 342 347 350 354 357 355 352 349 345 343 342 340 337 334 331 328 326 326 325 327 327 327 327 326 324 322 319 319 320 320 321 321 320 317 314 312
338 337 337 337 339 343 348 353 356 359 0 1 0 357 351 347 344 342 338 335 332 330 329 328 327 328 329 328 327 326 324 322 321 320 319 319 318 318 318 317 315 313
338 338 339 340 344 349 354 358 1 1 1 2 2 359 355 352 348 343 340 339 339 336 332 330 329 329 329 328 327 327 325 323 322 320 319 317 315 314 315 315 314 313
340 339 339 343 347 351 356 359 0 360 1 2 2 359 356 353 351 349 348 347 345 341 336 333 332 330 328 328 327 327 326 327 327 326 323 320 316 315 315 315 314 314
336 335 338 344 347 350 354 356 356 356 357 359 0 359 356 355 355 356 355 351 347 347 346 345 344 340 336 333 328 326 327 329 330 329 328 326 324 323 321 316 314 314
334 336 340 345 347 348 350 351 351 350 352 357 360 359 359 360 1 0 357 354 352 353 353 352 351 346 341 336 331 328 329 328 326 326 326 326 327 328 326 321 317 314
341 343 345 349 351 351 351 352 352 351 353 358 0 1 4 5 4 0 356 353 351 350 346 343 339 336 334 332 329 326 326 324 322 322 321 320 321 323 324 323 320 316
352 352 353 356 358 360 2 3 2 0 0 1 2 4 4 3 360 354 349 347 345 341 338 335 334 334 335 335 333 328 323 322 320 319 318 315 313 313 314 315 315 312
4 4 4 6 9 12 15 15 11 7 3 0 0 1 360 358 354 347 344 344 342 340 340 339 340 343 343 341 339 335 332 329 326 322 320 316 312 309 308 307 307 304
14 13 13 17 22 23 23 21 15 8 2 359 358 358 357 355 350 344 343 343 342 342 343 342 343 344 345 344 342 340 339 338 336 331 328 323 318 314 312 310 308 305
21 19 18 23 27 27 25 22 14 7 3 0 360 359 357 354 350 345 343 343 343 343 342 341 339 339 343 344 343 340 337 337 338 336 333 329 324 321 320 319 317 315
21 20 20 23 25 26 24 18 12 9 6 4 3 2 359 355 351 347 344 343 342 341 341 339 337 338 341 341 339 337 334 334 335 335 334 332 328 326 325 326 327 329
16 13 16 20 23 24 22 18 14 11 7 5 4 2 360 357 354 351 349 346 343 342 341 340 339 340 341 339 336 334 334 334 335 334 334 335 332 330 330 333 344 348
8 6 11 18 22 22 19 17 14 10 9 9 7 5 3 1 358 355 354 351 348 348 348 348 348 346 343 340 338 336 337 338 338 337 337 341 341 339 337 352 12 2
1 358 5 13 17 17 15 15 15 14 16 15 13 11 9 7 5 3 2 2 2 1 3 3 359 356 354 350 346 344 345 346 346 345 345 351 354 348 347 13 29 5
356 351 356 5 8 11 13 14 17 19 21 20 19 18 18 17 17 17 16 15 14 13 15 14 11 9 9 3 357 356 355 355 357 357 356 1 3 356 354 4 35 9
354 348 351 360 3 8 11 12 17 22 23 22 22 23 24 23 23 24 22 21 21 20 22 22 20 19 18 13 8 5 3 2 3 3 1 4 8 4 359 357 359 2
359 351 353 0 1 4 9 11 15 22 23 22 22 22 24 24 24 23 22 22 23 23 23 24 24 23 22 19 15 11 8 5 4 5 6 8 9 4 354 353 353 347
6 356 354 1 358 358 7 12 12 16 19 20 19 19 21 23 23 21 19 18 21 22 22 22 23 24 22 21 19 16 13 9 7 9 10 8 7 0 347 348 354 351